Regional Weather Roundup
Issued by NWS

Home | Current Version | Previous Version | Graphics & Text | Print | Product List | Glossary On
Versions: 1 2 3 4 5 6 7 8 9 10 11 12 13 14 15 16 17 18 19 20 21 22 23 24 25 26 27 28 29 30 31 32 33 34 35 36 37 38 39 40 41 42 43 44 45 46 47 48 49 50
000
ASUS43 KMKX 220411
RWRWI

WISCONSIN REGIONAL WEATHER ROUNDUP
NATIONAL WEATHER SERVICE MILWAUKEE/SULLIVAN WI
1100 PM CDT SUN SEP 21 2014

NOTE: "FAIR" INDICATES FEW OR NO CLOUDS BELOW 12,000 FEET WITH NO
SIGNIFICANT WEATHER AND/OR OBSTRUCTIONS TO VISIBILITY.

WIZ001-002-006>008-014>016-023>028-220500-
NORTHWEST WISCONSIN

CITY           SKY/WX    TMP DP  RH WIND       PRES   REMARKS
SUPERIOR ARPT  CLEAR     42  42  99 CALM      30.18F
ASHLAND        CLEAR     43  42  97 SW3       30.18S
HAYWARD        CLEAR     43  41  93 CALM      30.20R
SIREN          CLEAR     46  45  96 CALM      30.21R
RICE LAKE      CLEAR     46  44  94 CALM      30.21S
LADYSMITH      CLEAR     43  42  95 CALM      30.20F
EAU CLAIRE     CLEAR     47  44  90 CALM      30.20R
MENOMONIE      CLEAR     50  45  85 CALM      30.21R
NEW RICHMOND   CLEAR     47  46  97 CALM      30.21F
OSCEOLA        CLEAR     47  47 100 CALM      30.24S
$$

WIZ003>005-009-010-017-018-220500-
NORTH CENTRAL WISCONSIN

CITY           SKY/WX    TMP DP  RH WIND       PRES   REMARKS
WOODRUFF       CLEAR     39  37  92 CALM      30.17R
RHINELANDER    CLEAR     35  35 100 CALM      30.17S FOG
EAGLE RIVER    CLEAR     34  34 100 CALM      30.16R FOG
LAND O LAKES   CLEAR     35  34  99 CALM      30.16S
PHILLIPS       CLEAR     39  39 100 CALM      30.18R FOG
TOMAHAWK       CLEAR     34  33  96 CALM      30.18S
MEDFORD        CLEAR     37  37  99 CALM      30.19S
MERRILL        CLEAR     37  36  94 CALM      30.19R
$$

WIZ029-030-035-036-043>047-220500-
CENTRAL WISCONSIN

CITY           SKY/WX    TMP DP  RH WIND       PRES   REMARKS
WAUSAU         CLEAR     43  40  89 NW3       30.18R
MOSINEE        CLEAR     43  41  93 W3        30.20R
MARSHFIELD     CLEAR     43  40  89 NW3       30.19R
STEVENS POINT  CLEAR     40  38  91 CALM      30.20R
WAUPACA        CLEAR     47  41  81 CALM      30.19R
WAUTOMA        CLEAR     44  41  89 CALM      30.20R
WISC RAPIDS    CLEAR     43  41  93 CALM      30.21R
CAMP DOUGLAS   CLEAR     39  39 100 W3        30.20R
$$

WIZ011>013-019>022-031-037>040-048>050-220500-
NORTHEAST WISCONSIN

CITY           SKY/WX    TMP DP  RH WIND       PRES   REMARKS
ANTIGO         CLEAR     39  37  92 CALM      30.17S
STURGEON BAY   PTCLDY    46  39  76 N14       30.16R
GREEN BAY      CLEAR     42  40  92 NW6       30.17R
MANITOWOC      CLEAR     42  41  96 CALM      30.16R
APPLETON       PTCLDY    45  37  76 NW5       30.18R
CLINTONVILLE   CLEAR     43  41  93 CALM      30.18R
OSHKOSH        CLEAR     47  39  74 NW6       30.17R
$$

WIZ032>034-041-042-053>061-220500-
SOUTHWEST WISCONSIN

CITY           SKY/WX    TMP DP  RH WIND       PRES   REMARKS
LA CROSSE      CLEAR     51  46  83 E3        30.20R
SPARTA         CLEAR     42  41  97 CALM      30.22R
VIROQUA        FAIR      49  45  84 CALM      30.20S
BOSCOBEL       CLEAR     47  45  93 CALM      30.21R FOG
PRAIRIE DU CHI CLEAR     49  47  92 CALM      30.21R
PLATTEVILLE    FAIR      49  45  88 N5        30.21R
$$

WIZ056-057-062-063-064-067-068-220500-
SOUTH CENTRAL WISCONSIN

CITY           SKY/WX    TMP DP  RH WIND       PRES   REMARKS
BARABOO/DELLS  CLEAR     49  41  73 CALM      30.19S
LONE ROCK      CLEAR     50  44  80 CALM      30.20R
WATERTOWN      CLEAR     47  44  87 N5        30.16S
MADISON        CLEAR     48  43  82 N5        30.18R
MIDDLETON      FAIR      50  44  78 N5        30.19R
MONROE         CLEAR     52  45  76 N7        30.17S
JANESVILLE     CLEAR     48  45  87 NW5       30.16R
$$

WIZ051-052-058>065-066-070>072-220500-
SOUTHEAST WISCONSIN

CITY           SKY/WX    TMP DP  RH WIND       PRES   REMARKS
MILWAUKEE      CLEAR     51  41  68 N8        30.15R
WAUKESHA       CLEAR     45  41  87 N5        30.17R
MILWAUKEE/TIMM CLEAR     45  39  81 N3        30.17R
RACINE         CLEAR     49  42  77 NW8       30.16R
BURLINGTON     CLEAR     42  42 100 CALM      30.16R FOG
KENOSHA        CLEAR     49  43  80 N6        30.15R
FOND DU LAC    CLEAR     45  39  79 NW7       30.16S
SHEBOYGAN      CLEAR     44  40  85 NW5       30.15S
WEST BEND      CLEAR     45  39  81 CALM      30.15F
JUNEAU         CLEAR     46  41  84 N6        30.18S
$$

LSZ147-162-220500-
LAKE SUPERIOR

STATION/POSITION TIME  TEMP    WIND        PRES    WAVE
                       AIR SEA DIR/SP/G            HT/PER
                 (UTC) (F)     (DEG/KT/KT) (MB)    (FT/S)
W MID LAKE BUOY  0350   50 47  280/ 10/ 10 1020.5S   2/ 6
DEVILS ISLAND    0400   53     240/  8/  9 1021.6R
PORT WING        0300   47     150/  3/  5 1022.0R
SAXON HARBOR     0300   46     190/  5/  7 1021.7R
$$

LMZ867-665-643>646-220500-
LAKE MICHIGAN

STATION/POSITION TIME  TEMP    WIND        PRES    WAVE
                       AIR SEA DIR/SP/G            HT/PER
                 (UTC) (F)     (DEG/KT/KT) (MB)    (FT/S)
N MID LAKE BUOY  0350   48 57  340/ 17/ 21 1020.2R   4/ 5
NORTHPORT PIER   0300   49     340/ 20/ 23 1020.3R
KEWAUNEE LAKESHO 0300   45     310/  2/  4 1019.7R
SHEBOYGAN LAKESH 0400   49 51  340/  6/  7 1021.4F
PORT WASHINGTON  0340   49     330/  3/  6 1021.3S
ATWATER BUOY     0400   54     360/ 16/ 17 1021.8R
MILWAUKEE LAKESH 0300   53     340/  8/ 11   N/A
S MID LAKE BUOY  0350   54 61  350/ 19/ 23 1020.1R   7/ 8
KENOSHA   LAKESH 0400   53     330/  9/ 11 1020.7R
$$

TC  - TEMPERATURE IN CELSIUS
VSB - VISIBILITY IN STATUTE MILES
WCI - WIND CHILL INDEX
HX  - HEAT INDEX



USA.gov is the U.S. government's official web portal to all federal, state and local government web resources and services.